Tracking 30074 objects as of 13-Jan-2025
HD Live streaming from Space Station
objects crossing your sky now

WESTFORD NEEDLES

Track WESTFORD NEEDLES now!
10-day predictions
WESTFORD NEEDLES is classified as:


NORAD ID: 3257
Int'l Code: 1963-014BX
Perigee: 3,493.3 km
Apogee: 3,810.9 km
Inclination: 87.4 °
Period: 166.4 minutes
Semi major axis: 10023 km
RCS: 0.1816 m2 (medium)
Launch date: May 9, 1963
Source: United States (US)
Launch site: AIR FORCE WESTERN TEST RANGE (AFWTR)
Your satellite tracking list
Your tracking list is empty




NASA's NSSDC Master Catalog

Two Line Element Set (TLE):
1 03257U 63014BX  25012.50387972  .00000066  00000-0  29620-1 0  9994
2 03257  87.3557 197.3439 0158388 317.1353  41.7246  8.65166629 14891
Source of the keplerian elements: AFSPC